Home   Weather   Trenton   Past weeks
Flag for USA

Past Weather in Trenton, New Jersey, USA — Yesterday and Last 2 Weeks

Now
57 °F

Overcast.


Feels Like: 54 °F
Forecast: 57 / 49 °F
Wind: 14 mph from West

Location: Mercer County Airport

Current Time: Oct 17, 2019 at 4:29:21 pm

Latest Report: Oct 17, 2019 at 3:53 pm


Visibility: 10 mi

Pressure: 29.46 "Hg

Humidity: 51%

Dew Point: 39 °F

Location of TrentonLocation

Past Weather in Trenton — Graph

°F

Trenton Temperature Yesterday

Maximum temperature yesterday: 66 °F (at 12:53 pm)
Minimum temperature yesterday: 45 °F (at 2:53 am)
Average temperature yesterday: 57 °F

High & Low Weather Summary for the Past Weeks

 TemperatureHumidityPressure
High92 °F (Oct 2, 3:53 pm)100% (Oct 3, 7:53 am)30.45 "Hg (Oct 3, 7:53 am)
Low41 °F (Oct 5, 4:53 am)29% (Oct 14, 3:53 pm)29.25 "Hg (Oct 16, 7:53 pm)
Average59 °F74%30.04 "Hg
* Reported Oct 2 2:53 pm — Oct 17 2:53 pm, Trenton. Weather by CustomWeather, © 2019

Note: Actual official high and low records may vary slightly from our data, if they occured in-between our weather recording intervals... More about our weather records

Advertising

Trenton Weather History for the Previous 24 Hours

Scroll right to see more
 ConditionsComfort  
Time TempWeatherWind HumidityBarometerVisibility
2:53 pm
Thu, Oct 17
57 °FMostly cloudy.17 mph53%29.44 "Hg10 mi
1:53 pm56 °FOvercast.17 mph53%29.42 "Hg10 mi
12:53 pm58 °FPartly sunny.24 mph47%29.40 "Hg10 mi
11:53 am56 °FPartly sunny.15 mph53%29.40 "Hg10 mi
9:53 am53 °FOvercast.23 mph56%29.40 "Hg10 mi
8:53 am52 °FOvercast.17 mph59%29.39 "Hg10 mi
7:53 am51 °FOvercast.14 mph61%29.38 "Hg10 mi
6:53 am52 °FOvercast.15 mph61%29.37 "Hg10 mi
5:53 am51 °FPassing clouds.12 mph69%29.35 "Hg10 mi
4:53 am51 °FPassing clouds.12 mph69%29.34 "Hg10 mi
3:53 am50 °FClear.12 mph71%29.34 "Hg10 mi
2:53 am51 °FClear.14 mph69%29.35 "Hg10 mi
1:53 am51 °FPassing clouds.13 mph66%29.36 "Hg10 mi
12:53 am51 °FOvercast.13 mph66%29.35 "Hg10 mi
11:53 pm
Wed, Oct 16
52 °FPartly cloudy.18 mph69%29.31 "Hg10 mi
10:53 pm53 °FPassing clouds.15 mph74%29.31 "Hg10 mi
9:53 pm53 °FMostly cloudy.20 mph80%29.30 "Hg10 mi
9:23 pm53 °FMostly cloudy.22 mph86%29.31 "Hg10 mi
8:58 pm54 °FLight rain. Overcast.24 mph90%29.29 "Hg8 mi
7:53 pm58 °FLight rain. Fog.7 mph97%29.25 "Hg3 mi
7:36 pm59 °FLight rain. Fog.13 mph96%29.29 "Hg3 mi
7:20 pm59 °FRain. Fog.9 mph96%29.30 "Hg3 mi
7:08 pm58 °FHeavy rain. Fog.13 mph97%29.31 "Hg1 mi
6:42 pm58 °FHeavy rain. Fog.12 mph97%29.33 "Hg2 mi
6:10 pm59 °FHeavy rain. Fog.14 mph93%29.38 "Hg2 mi
5:53 pm60 °FHeavy rain. Fog.15 mph96%29.39 "Hg3 mi
5:31 pm61 °FHeavy rain. Fog.16 mph93%29.43 "Hg2 mi
5:02 pm60 °FHeavy rain. Fog.12 mph93%29.48 "Hg2 mi
4:40 pm60 °FHeavy rain. Fog.7 mph90%29.51 "Hg1 mi
4:30 pm62 °FRain. Mostly cloudy.13 mph83%29.52 "Hg2 mi
4:22 pm63 °FHeavy rain. Fog.18 mph90%29.54 "Hg2 mi
Weather by CustomWeather, © 2019

See weather overview